{"data":{"norad_id":62674,"epoch":"2026-09-22T19:49:26.659200Z","epoch_age_seconds":118574,"freshness":"FRESH","line1":"1 62674U 25009BT  26265.82600300  .00008044  00000+0  26298-3 0  9996","line2":"2 62674  97.4003 348.0843 0003689 342.5175  17.5939 15.31981172151507","mean_motion":15.31981172,"eccentricity":0.0003689,"inclination_deg":97.4003,"raan_deg":348.0843,"arg_perigee_deg":342.5175,"mean_anomaly_deg":17.5939,"bstar":0.00026298,"rev_number":15150,"period_min":93.995933260725,"perigee_km":467.37572274619,"apogee_km":472.42820589407,"semimajor_km":6848.0389643201,"source":"CELESTRAK","updated_at":"2026-09-23T09:00:21.546382Z"}}